Location: Bruderhein
(53.8035°N, 112.9265°W)
Time: 06:19:42
(UTC+00:00)

TIGRISAT - Pass Details

Date: 02 April 2023
Orbit: 599 x 682 km, 97.7° (Epoch: 03 June)

Event Time Altitude Azimuth Distance (km) Brightness Sun altitude
Rises 11:38:44 0° 150° (SSE) 2,943 ? -12.5°
Reaches altitude 10° 11:40:57 10° 145° (SE) 2,051 ? -12.3°
Maximum altitude 11:45:19 54° 69° (ENE) 811 ? -11.7°
Drops below altitude 10° 11:49:48 10° 353° (N) 2,114 ? -11.1°
Sets 11:52:06 0° 349° (N) 3,042 ? -10.8°
